Time,TemperatureF,DewpointF,PressureIn,WindDirection,WindDirectionDegrees,WindSpeedMPH,WindSpeedGustMPH,Humidity,HourlyPrecipIn,Conditions,Clouds,dailyrainin,SoftwareType,DateUTC
2013-05-18 00:00:00,50.0,46.0,30.18,ENE,66,0.0,4.0,88,-99.99,,,-99.99,,2013-05-18 04:00:00,
2013-05-18 00:23:00,50.0,46.0,30.18,ENE,66,0.0,4.0,88,-99.99,,,-99.99,,2013-05-18 04:23:00,
2013-05-18 00:33:00,50.0,46.0,30.18,ENE,66,0.0,4.0,88,-99.99,,,-99.99,,2013-05-18 04:33:00,
2013-05-18 00:43:00,50.0,46.0,30.18,ENE,66,0.0,4.0,88,-99.99,,,-99.99,,2013-05-18 04:43:00,
2013-05-18 00:53:00,50.0,46.0,30.18,ENE,66,0.0,4.0,88,-99.99,,,-99.99,,2013-05-18 04:53:00,
2013-05-18 01:00:00,50.0,48.0,30.18,East,79,0.0,0.0,90,-99.99,,,-99.99,,2013-05-18 05:00:00,
2013-05-18 01:22:00,50.0,48.0,30.18,East,79,0.0,0.0,90,-99.99,,,-99.99,,2013-05-18 05:22:00,
2013-05-18 01:32:00,50.0,48.0,30.18,East,79,0.0,0.0,90,-99.99,,,-99.99,,2013-05-18 05:32:00,
2013-05-18 01:42:00,50.0,48.0,30.18,East,79,0.0,0.0,90,-99.99,,,-99.99,,2013-05-18 05:42:00,
2013-05-18 01:52:00,50.0,48.0,30.18,East,79,0.0,0.0,90,-99.99,,,-99.99,,2013-05-18 05:52:00,
2013-05-18 02:00:00,53.0,48.0,30.18,SE,126,0.0,0.0,83,-99.99,,,-99.99,,2013-05-18 06:00:00,
2013-05-18 02:32:00,53.0,48.0,30.18,SE,126,0.0,0.0,83,-99.99,,,-99.99,,2013-05-18 06:32:00,
2013-05-18 02:42:00,53.0,48.0,30.18,SE,126,0.0,0.0,83,-99.99,,,-99.99,,2013-05-18 06:42:00,
2013-05-18 02:52:00,53.0,48.0,30.18,SE,126,0.0,0.0,83,-99.99,,,-99.99,,2013-05-18 06:52:00,
2013-05-18 03:00:00,52.0,48.0,30.21,NNE,23,0.0,3.0,87,-99.99,,,-99.99,,2013-05-18 07:00:00,
2013-05-18 03:32:00,52.0,48.0,30.21,NNE,23,0.0,3.0,87,-99.99,,,-99.99,,2013-05-18 07:32:00,
2013-05-18 03:43:00,52.0,48.0,30.21,NNE,23,0.0,3.0,87,-99.99,,,-99.99,,2013-05-18 07:43:00,
2013-05-18 03:53:00,52.0,48.0,30.21,NNE,23,0.0,3.0,87,-99.99,,,-99.99,,2013-05-18 07:53:00,
2013-05-18 04:00:00,53.0,49.0,30.21,NW,313,0.0,4.0,85,-99.99,,,-99.99,,2013-05-18 08:00:00,
2013-05-18 04:33:00,53.0,49.0,30.21,NW,313,0.0,4.0,85,-99.99,,,-99.99,,2013-05-18 08:33:00,
2013-05-18 04:42:00,53.0,49.0,30.21,NW,313,0.0,4.0,85,-99.99,,,-99.99,,2013-05-18 08:42:00,
2013-05-18 04:52:00,53.0,49.0,30.21,NW,313,0.0,4.0,85,-99.99,,,-99.99,,2013-05-18 08:52:00,
2013-05-18 05:00:00,53.0,50.0,30.24,NNE,29,0.0,4.0,92,-99.99,,,-99.99,,2013-05-18 09:00:00,
2013-05-18 05:22:00,53.0,50.0,30.24,NNE,29,0.0,4.0,92,-99.99,,,-99.99,,2013-05-18 09:22:00,
2013-05-18 05:33:00,53.0,50.0,30.24,NNE,29,0.0,4.0,92,-99.99,,,-99.99,,2013-05-18 09:33:00,
2013-05-18 05:43:00,53.0,50.0,30.24,NNE,29,0.0,4.0,92,-99.99,,,-99.99,,2013-05-18 09:43:00,
2013-05-18 05:53:00,53.0,50.0,30.24,NNE,29,0.0,4.0,92,-99.99,,,-99.99,,2013-05-18 09:53:00,
2013-05-18 06:00:00,53.0,51.0,30.24,ENE,70,0.0,2.0,93,-99.99,,,-99.99,,2013-05-18 10:00:00,
2013-05-18 06:23:00,53.0,51.0,30.24,ENE,70,0.0,2.0,93,-99.99,,,-99.99,,2013-05-18 10:23:00,
2013-05-18 06:33:00,53.0,51.0,30.24,ENE,70,0.0,2.0,93,-99.99,,,-99.99,,2013-05-18 10:33:00,
2013-05-18 06:42:00,53.0,51.0,30.24,ENE,70,0.0,2.0,93,-99.99,,,-99.99,,2013-05-18 10:42:00,
2013-05-18 06:53:00,53.0,51.0,30.24,ENE,70,0.0,2.0,93,-99.99,,,-99.99,,2013-05-18 10:53:00,
2013-05-18 07:00:00,53.0,50.0,30.24,SE,137,0.0,1.0,90,-99.99,,,-99.99,,2013-05-18 11:00:00,
2013-05-18 07:22:00,53.0,50.0,30.24,SE,137,0.0,1.0,90,-99.99,,,-99.99,,2013-05-18 11:22:00,
2013-05-18 07:33:00,53.0,50.0,30.24,SE,137,0.0,1.0,90,-99.99,,,-99.99,,2013-05-18 11:33:00,
2013-05-18 07:42:00,53.0,50.0,30.24,SE,137,0.0,1.0,90,-99.99,,,-99.99,,2013-05-18 11:42:00,
2013-05-18 07:52:00,53.0,50.0,30.24,SE,137,0.0,1.0,90,-99.99,,,-99.99,,2013-05-18 11:52:00,
2013-05-18 08:00:00,56.0,52.0,30.27,ENE,64,0.0,0.0,87,-99.99,,,-99.99,,2013-05-18 12:00:00,
2013-05-18 08:33:00,56.0,52.0,30.27,ENE,64,0.0,0.0,87,-99.99,,,-99.99,,2013-05-18 12:33:00,
2013-05-18 08:42:00,56.0,52.0,30.27,ENE,64,0.0,0.0,87,-99.99,,,-99.99,,2013-05-18 12:42:00,
2013-05-18 08:52:00,56.0,52.0,30.27,ENE,64,0.0,0.0,87,-99.99,,,-99.99,,2013-05-18 12:52:00,
2013-05-18 09:00:00,60.0,54.0,30.27,SSE,150,0.0,-999.0,79,-99.99,,,-99.99,,2013-05-18 13:00:00,
2013-05-18 09:21:00,60.0,54.0,30.27,SSE,150,0.0,-999.0,79,-99.99,,,-99.99,,2013-05-18 13:21:00,
2013-05-18 09:33:00,60.0,54.0,30.27,SSE,150,0.0,-999.0,79,-99.99,,,-99.99,,2013-05-18 13:33:00,
2013-05-18 09:43:00,60.0,54.0,30.27,SSE,150,0.0,-999.0,79,-99.99,,,-99.99,,2013-05-18 13:43:00,
2013-05-18 09:53:00,60.0,54.0,30.27,SSE,150,0.0,-999.0,79,-99.99,,,-99.99,,2013-05-18 13:53:00,
2013-05-18 10:00:00,63.0,53.0,30.27,SE,125,2.0,9.0,68,-99.99,,,-99.99,,2013-05-18 14:00:00,
2013-05-18 10:22:00,63.0,53.0,30.27,SE,125,2.0,9.0,68,-99.99,,,-99.99,,2013-05-18 14:22:00,
2013-05-18 10:33:00,63.0,53.0,30.27,SE,125,2.0,9.0,68,-99.99,,,-99.99,,2013-05-18 14:33:00,
2013-05-18 10:42:00,63.0,53.0,30.27,SE,125,2.0,9.0,68,-99.99,,,-99.99,,2013-05-18 14:42:00,
2013-05-18 10:54:00,63.0,53.0,30.27,SE,125,2.0,9.0,68,-99.99,,,-99.99,,2013-05-18 14:54:00,
2013-05-18 11:00:00,64.0,52.0,30.27,South,186,5.0,14.0,65,-99.99,,,-99.99,,2013-05-18 15:00:00,
2013-05-18 11:23:00,64.0,52.0,30.27,South,186,5.0,14.0,65,-99.99,,,-99.99,,2013-05-18 15:23:00,
2013-05-18 11:33:00,64.0,52.0,30.27,South,186,5.0,14.0,65,-99.99,,,-99.99,,2013-05-18 15:33:00,
2013-05-18 11:43:00,64.0,52.0,30.27,South,186,5.0,14.0,65,-99.99,,,-99.99,,2013-05-18 15:43:00,
2013-05-18 11:54:00,64.0,52.0,30.27,South,186,5.0,14.0,65,-99.99,,,-99.99,,2013-05-18 15:54:00,
2013-05-18 12:00:00,64.0,52.0,30.27,SSE,154,9.0,13.0,64,-99.99,,,-99.99,,2013-05-18 16:00:00,
2013-05-18 12:33:00,64.0,52.0,30.27,SSE,154,9.0,13.0,64,-99.99,,,-99.99,,2013-05-18 16:33:00,
2013-05-18 12:42:00,64.0,52.0,30.27,SSE,154,9.0,13.0,64,-99.99,,,-99.99,,2013-05-18 16:42:00,
2013-05-18 12:52:00,64.0,52.0,30.27,SSE,154,9.0,13.0,64,-99.99,,,-99.99,,2013-05-18 16:52:00,
2013-05-18 13:00:00,62.0,52.0,30.27,South,171,5.0,11.0,69,-99.99,,,-99.99,,2013-05-18 17:00:00,
2013-05-18 13:22:00,62.0,52.0,30.27,South,171,5.0,11.0,69,-99.99,,,-99.99,,2013-05-18 17:22:00,
2013-05-18 13:33:00,62.0,52.0,30.27,South,171,5.0,11.0,69,-99.99,,,-99.99,,2013-05-18 17:33:00,
2013-05-18 13:42:00,62.0,52.0,30.27,South,171,5.0,11.0,69,-99.99,,,-99.99,,2013-05-18 17:42:00,
2013-05-18 13:52:00,62.0,52.0,30.27,South,171,5.0,11.0,69,-99.99,,,-99.99,,2013-05-18 17:52:00,
2013-05-18 14:00:00,64.0,52.0,30.27,South,171,3.0,15.0,66,-99.99,,,-99.99,,2013-05-18 18:00:00,
2013-05-18 14:22:00,64.0,52.0,30.27,South,171,3.0,15.0,66,-99.99,,,-99.99,,2013-05-18 18:22:00,
2013-05-18 14:32:00,64.0,52.0,30.27,South,171,3.0,15.0,66,-99.99,,,-99.99,,2013-05-18 18:32:00,
2013-05-18 14:42:00,64.0,52.0,30.27,South,171,3.0,15.0,66,-99.99,,,-99.99,,2013-05-18 18:42:00,
2013-05-18 14:52:00,64.0,52.0,30.27,South,171,3.0,15.0,66,-99.99,,,-99.99,,2013-05-18 18:52:00,
2013-05-18 15:00:00,63.0,51.0,30.27,South,171,7.0,13.0,66,-99.99,,,-99.99,,2013-05-18 19:00:00,
2013-05-18 15:22:00,63.0,51.0,30.27,South,171,7.0,13.0,66,-99.99,,,-99.99,,2013-05-18 19:22:00,
2013-05-18 15:32:00,63.0,51.0,30.27,South,171,7.0,13.0,66,-99.99,,,-99.99,,2013-05-18 19:32:00,
2013-05-18 15:42:00,63.0,51.0,30.27,South,171,7.0,13.0,66,-99.99,,,-99.99,,2013-05-18 19:42:00,
2013-05-18 15:52:00,63.0,51.0,30.27,South,171,7.0,13.0,66,-99.99,,,-99.99,,2013-05-18 19:52:00,
2013-05-18 16:00:00,62.0,52.0,30.27,SSW,205,4.0,13.0,68,-99.99,,,-99.99,,2013-05-18 20:00:00,
2013-05-18 16:22:00,62.0,52.0,30.27,SSW,205,4.0,13.0,68,-99.99,,,-99.99,,2013-05-18 20:22:00,
2013-05-18 16:32:00,62.0,52.0,30.27,SSW,205,4.0,13.0,68,-99.99,,,-99.99,,2013-05-18 20:32:00,
2013-05-18 16:42:00,62.0,52.0,30.27,SSW,205,4.0,13.0,68,-99.99,,,-99.99,,2013-05-18 20:42:00,
2013-05-18 16:52:00,62.0,52.0,30.27,SSW,205,4.0,13.0,68,-99.99,,,-99.99,,2013-05-18 20:52:00,
2013-05-18 17:00:00,62.0,53.0,30.27,ENE,75,0.0,8.0,74,-99.99,,,-99.99,,2013-05-18 21:00:00,
2013-05-18 17:33:00,62.0,53.0,30.27,ENE,75,0.0,8.0,74,-99.99,,,-99.99,,2013-05-18 21:33:00,
2013-05-18 17:44:00,62.0,53.0,30.27,ENE,75,0.0,8.0,74,-99.99,,,-99.99,,2013-05-18 21:44:00,
2013-05-18 17:53:00,62.0,53.0,30.27,ENE,75,0.0,8.0,74,-99.99,,,-99.99,,2013-05-18 21:53:00,
2013-05-18 18:00:00,59.0,55.0,30.27,ENE,76,0.0,8.0,88,-99.99,,,-99.99,,2013-05-18 22:00:00,
2013-05-18 18:23:00,59.0,55.0,30.27,ENE,76,0.0,8.0,88,-99.99,,,-99.99,,2013-05-18 22:23:00,
2013-05-18 18:33:00,59.0,55.0,30.27,ENE,76,0.0,8.0,88,-99.99,,,-99.99,,2013-05-18 22:33:00,
2013-05-18 18:42:00,59.0,55.0,30.27,ENE,76,0.0,8.0,88,-99.99,,,-99.99,,2013-05-18 22:42:00,
2013-05-18 18:53:00,59.0,55.0,30.27,ENE,76,0.0,8.0,88,-99.99,,,-99.99,,2013-05-18 22:53:00,
2013-05-18 19:00:00,58.0,55.0,30.27,ESE,121,0.0,7.0,91,-99.99,,,-99.99,,2013-05-18 23:00:00,
2013-05-18 19:22:00,58.0,55.0,30.27,ESE,121,0.0,7.0,91,-99.99,,,-99.99,,2013-05-18 23:22:00,
2013-05-18 19:32:00,58.0,55.0,30.27,ESE,121,0.0,7.0,91,-99.99,,,-99.99,,2013-05-18 23:32:00,
2013-05-18 19:42:00,58.0,55.0,30.27,ESE,121,0.0,7.0,91,-99.99,,,-99.99,,2013-05-18 23:42:00,
2013-05-18 19:53:00,58.0,55.0,30.27,ESE,121,0.0,7.0,91,-99.99,,,-99.99,,2013-05-18 23:53:00,
2013-05-18 20:00:00,57.0,54.0,30.27,SE,134,0.0,8.0,90,-99.99,,,-99.99,,2013-05-19 00:00:00,
2013-05-18 20:22:00,57.0,54.0,30.27,SE,134,0.0,8.0,90,-99.99,,,-99.99,,2013-05-19 00:22:00,
2013-05-18 20:32:00,57.0,54.0,30.27,SE,134,0.0,8.0,90,-99.99,,,-99.99,,2013-05-19 00:32:00,
2013-05-18 20:42:00,57.0,54.0,30.27,SE,134,0.0,8.0,90,-99.99,,,-99.99,,2013-05-19 00:42:00,
2013-05-18 20:52:00,57.0,54.0,30.27,SE,134,0.0,8.0,90,-99.99,,,-99.99,,2013-05-19 00:52:00,
2013-05-18 21:00:00,57.0,54.0,30.27,East,93,0.0,7.0,90,-99.99,,,-99.99,,2013-05-19 01:00:00,
2013-05-18 21:22:00,57.0,54.0,30.27,East,93,0.0,7.0,90,-99.99,,,-99.99,,2013-05-19 01:22:00,
2013-05-18 21:32:00,57.0,54.0,30.27,East,93,0.0,7.0,90,-99.99,,,-99.99,,2013-05-19 01:32:00,
2013-05-18 21:42:00,57.0,54.0,30.27,East,93,0.0,7.0,90,-99.99,,,-99.99,,2013-05-19 01:42:00,
2013-05-18 21:52:00,57.0,54.0,30.27,East,93,0.0,7.0,90,-99.99,,,-99.99,,2013-05-19 01:52:00,
2013-05-18 22:00:00,56.0,53.0,30.27,SE,124,2.0,8.0,91,-99.99,,,-99.99,,2013-05-19 02:00:00,
2013-05-18 22:22:00,56.0,53.0,30.27,SE,124,2.0,8.0,91,-99.99,,,-99.99,,2013-05-19 02:22:00,
2013-05-18 22:32:00,56.0,53.0,30.27,SE,124,2.0,8.0,91,-99.99,,,-99.99,,2013-05-19 02:32:00,
2013-05-18 22:42:00,56.0,53.0,30.27,SE,124,2.0,8.0,91,-99.99,,,-99.99,,2013-05-19 02:42:00,
2013-05-18 22:52:00,56.0,53.0,30.27,SE,124,2.0,8.0,91,-99.99,,,-99.99,,2013-05-19 02:52:00,
2013-05-18 23:00:00,56.0,53.0,30.27,NE,48,2.0,12.0,93,-99.99,,,-99.99,,2013-05-19 03:00:00,
2013-05-18 23:22:00,56.0,53.0,30.27,NE,48,2.0,12.0,93,-99.99,,,-99.99,,2013-05-19 03:22:00,
2013-05-18 23:33:00,56.0,53.0,30.27,NE,48,2.0,12.0,93,-99.99,,,-99.99,,2013-05-19 03:33:00,
2013-05-18 23:43:00,56.0,53.0,30.27,NE,48,2.0,12.0,93,-99.99,,,-99.99,,2013-05-19 03:43:00,
2013-05-18 23:53:00,56.0,53.0,30.27,NE,48,2.0,12.0,93,-99.99,,,-99.99,,2013-05-19 03:53:00,